Frederick, OK

1:30 PM CDT on April 22, 2018 (GMT -0500)
Frederick Municipal

Weather History for KFDR - February, 2013

Change the Weather History Date:

Saturday, February 2, 2013

  Actual Average (KLTS) Record (KLTS)
Temperature  
Mean Temperature 48 °F -  
Max Temperature 64 °F 50 °F 52 °F (2018)
Min Temperature 33 °F 28 °F 17 °F (2015)
Degree Days  
Heating Degree Days 16    
Moisture  
Dew Point 28 °F    
Average Humidity 50    
Maximum Humidity 75    
Minimum Humidity 24    
Precipitation  
Precipitation 0.00 in - - ()
Sea Level Pressure  
Sea Level Pressure 30.23 in    
Wind  
Wind Speed 10 mph (NNE)    
Max Wind Speed 15 mph    
Max Gust Speed 17 mph    
Visibility 10 miles    
Events      
Averages and records for this station are not official NWS values.
T = Trace of Precipitation, MM = Missing Value Source: NWS Daily Summary

Daily Weather History Graph

Daily Weather History Graph

Search for Another Location

Airport or City:

Astronomy

Feb. 02, 2013 Rise Set
Actual Time 7:32 AM CST 6:07 PM CST
Civil Twilight 7:06 AM CST 6:33 PM CST
Nautical Twilight 6:36 AM CST 7:03 PM CST
Astronomical Twilight 6:06 AM CST 7:33 PM CST
Moon No Moon Rise 11:04 AM CST (2/2)
Length of Visible Light 11h 27m
Length of Day
10h 34m
Waning Gibbous, 59% of the Moon is Illuminated
Feb 2
Waning Gibbous
Feb 3
Last Quarter
Feb 10
New
Feb 17
First Quarter
Feb 25
Full

Hourly Weather History & Observations

Time (CST) Temp. Windchill Dew Point Humidity Pressure Visibility Wind Dir Wind Speed Gust Speed Precip Events Conditions
12:53 AM 37.9 °F 30.5 °F 27.0 °F 65% 30.09 in 10.0 mi NNE 11.5 mph - N/A   Clear
1:53 AM 36.0 °F 29.0 °F 27.0 °F 70% 30.09 in 10.0 mi NE 9.2 mph - N/A   Clear
2:53 AM 36.0 °F 27.5 °F 28.0 °F 73% 30.08 in 10.0 mi ENE 12.7 mph - N/A   Clear
3:53 AM 34.0 °F 26.0 °F 27.0 °F 75% 30.10 in 10.0 mi NE 10.4 mph - N/A   Clear
4:53 AM 34.0 °F 24.6 °F 27.0 °F 75% 30.13 in 10.0 mi North 13.8 mph - N/A   Clear
6:53 AM 33.1 °F 24.4 °F 26.1 °F 75% 30.19 in 10.0 mi North 11.5 mph - N/A   Clear
7:53 AM 35.1 °F 26.9 °F 27.0 °F 72% 30.23 in 10.0 mi North 11.5 mph - N/A   Clear
8:53 AM 39.0 °F 33.4 °F 28.0 °F 65% 30.26 in 10.0 mi North 8.1 mph - N/A   Clear
9:53 AM 48.9 °F - 30.0 °F 48% 30.28 in 10.0 mi NNE 15.0 mph - N/A   Clear
10:53 AM 53.1 °F - 30.9 °F 43% 30.28 in 10.0 mi North 13.8 mph - N/A   Clear
11:53 AM 55.9 °F - 30.9 °F 39% 30.29 in 10.0 mi North 15.0 mph - N/A   Clear
12:53 PM 60.1 °F - 32.0 °F 35% 30.28 in 10.0 mi North 13.8 mph - N/A   Clear
1:53 PM 62.1 °F - 30.0 °F 30% 30.26 in 10.0 mi North 13.8 mph - N/A   Clear
2:53 PM 64.0 °F - 30.0 °F 28% 30.25 in 10.0 mi NNE 11.5 mph 17.3 mph N/A   Clear
3:53 PM 64.0 °F - 28.0 °F 26% 30.25 in 10.0 mi North 6.9 mph - N/A   Clear
4:53 PM 63.0 °F - 25.0 °F 24% 30.25 in 10.0 mi North 5.8 mph - N/A   Clear
5:53 PM 57.9 °F - 28.9 °F 33% 30.25 in 10.0 mi NNE 4.6 mph - N/A   Clear
6:53 PM 50.0 °F - 26.1 °F 39% 30.28 in 10.0 mi NNE 3.5 mph - N/A   Clear
7:53 PM 50.0 °F - 26.1 °F 39% 30.28 in 10.0 mi Calm Calm - N/A   Clear
8:53 PM 46.0 °F - 27.0 °F 47% 30.30 in 10.0 mi Calm Calm - N/A   Clear
9:53 PM 46.0 °F - 27.0 °F 47% 30.30 in 10.0 mi Calm Calm - N/A   Clear
10:53 PM 44.1 °F - 28.0 °F 53% 30.30 in 10.0 mi Calm Calm - N/A   Clear
11:53 PM 43.0 °F 41.3 °F 26.1 °F 51% 30.30 in 10.0 mi West 3.5 mph - N/A   Clear